HST 1 20580U 90037B 25176.15867404 .00003942 00000-0 14351-3 0 9995 2 20580 28.4690 350.8805 0002188 172.2630 187.7999 15.25392441734162 ISS (ZARYA) 1 25544U 98067A 25176.12801460 .00008634 00000-0 15782-3 0 9990 2 25544 51.6361 267.7216 0002169 287.1941 72.8811 15.50230128516393 CXO 1 25867U 99040B 25174.72419316 .00000421 00000-0 00000+0 0 9998 2 25867 49.6806 129.3423 8417193 309.6282 0.0394 0.37805500 27126